Location: Sternwarte ZA, Rosenfeld-Brittheim
(48.2889°N, 8.6789°E)
Time: 07:15:45
(UTC+02:00)

Envisat - Visible Passes

Search period start: 27 June 2017 00:00
Search period end: 07 July 2017 00:00
Orbit: 764 x 766 km, 98.2° (Epoch: 26 June)

Date Brightness Start Highest point End Pass type
(mag) Time Alt. Az. Time Alt. Az. Time Alt. Az.
28 Jun 5.7 23:01:18 10° WSW 23:03:08 12° W 23:04:58 10° WNW visible
29 Jun 5.1 22:21:50 10° SSW 22:25:57 25° W 22:30:06 10° NW visible
01 Jul 5.6 22:49:02 10° WSW 22:51:53 15° W 22:54:43 10° NW visible
02 Jul 4.8 22:10:20 10° SSW 22:14:46 30° W 22:19:14 10° NNW visible
04 Jul 5.5 22:37:11 10° SW 22:40:39 18° W 22:44:09 10° NW visible
05 Jul 4.5 21:58:56 10° SSW 22:03:36 37° W 22:08:19 10° NNW visible
06 Jul 5.8 23:05:32 10° W 23:06:39 11° W 23:07:46 10° WNW visible
